sat.trackr.live / text

‹ back to catalog

STARLINK-32356

NORAD 60921 · 2024-154U

PAYLOAD ACTIVE UNKNOWN

§ Identity

Operator
Country
US
Launch date
2024-08-31
Launch site
AFETR
Launch vehicle
Mass (kg)
RCS (m²)

Purposes: comms

External: N2YO · Heavens-Above · Gunter

§ Orbital elements

Epoch: 2026-09-21T21:25:04.830528Z

Period
94.01 min
Inclination
53.1610°
Eccentricity
0.0001624
Mean motion
15.31694512 rev/d
Perigee alt
469.6 km
Apogee alt
471.9 km
Semi-major
6,848.9 km
B*
-1.2323e-5
RAAN
91.1376°
Arg perigee
95.7248°
Mean anomaly
264.3939°
Rev number
11,640

§ Raw data

STARLINK-323561 60921U 24154U   26264.89241702 -.00000748  00000+0 -12323-4 0  99922 60921  53.1610  91.1376 0001624  95.7248 264.3939 15.31694512116406

JSON: /api/v1/satellites/60921 · /tle

For live sub-satellite position, see the globe view (requires WebGL).

§ Visibility from observer

Set your observer location to see the next 7 days of passes ≥ 10°. The values pass through the URL so the page stays shareable.

No JS? Fill the form by hand. The geolocation button needs JavaScript.